User: anonymous   Login
Location: Unspecified
(0.0000°N, 0.0000°E)
Time: 00:08:51
(UTC+00:00)
Language:

DICE 1 - Orbit

View from above orbital plane
View from above orbital plane
View from above satellite
View from above satellite

Ground track
Ground track

The orbit data is extracted from the following two-line orbital elements,

1 37851U 11061B   21023.51559345  .00001868  00000-0  10075-3 0  9997
2 37851 101.7472 224.4931 0177590 171.0918 189.3516 15.04939442504013
Epoch (UTC): 23 January 2021 12:22:27
Eccentricity: 0.0177590
inclination: 101.7472°
perigee height: 428 km
apogee height: 675 km
right ascension of ascending node: 224.4931°
argument of perigee: 171.0918°
revolutions per day: 15.04939442
mean anomaly at epoch: 189.3516°
orbit number at epoch: 50401

The dashed part of the orbit path shows where the satellite is in the earth's shadow,  

DLR